Time,TemperatureF,DewpointF,PressureIn,WindDirection,WindDirectionDegrees,WindSpeedMPH,WindSpeedGustMPH,Humidity,HourlyPrecipIn,Conditions,Clouds,dailyrainin,SoftwareType,DateUTC
2013-07-02 00:12:00,74.4,72.0,29.90,WNW,294,0.0,-999.0,92,-99.99,,,0.00,weatherlink.com 1.10,2013-07-02 05:12:00,
2013-07-02 00:27:00,74.4,72.0,29.90,WNW,298,0.0,-999.0,91,-99.99,,,0.00,weatherlink.com 1.10,2013-07-02 05:27:00,
2013-07-02 00:42:00,74.5,72.0,29.89,WNW,302,0.0,-999.0,90,-99.99,,,0.00,weatherlink.com 1.10,2013-07-02 05:42:00,
2013-07-02 00:57:00,74.4,71.0,29.89,North,360,0.0,-999.0,88,-99.99,,,0.00,weatherlink.com 1.10,2013-07-02 05:57:00,
2013-07-02 01:12:00,74.7,71.0,29.89,NW,319,0.0,-999.0,87,-99.99,,,0.00,weatherlink.com 1.10,2013-07-02 06:12:00,
2013-07-02 01:27:00,75.0,71.0,29.89,NW,321,0.0,-999.0,86,-99.99,,,0.00,weatherlink.com 1.10,2013-07-02 06:27:00,
2013-07-02 01:42:00,75.2,71.0,29.89,NNW,333,0.0,-999.0,85,-99.99,,,0.00,weatherlink.com 1.10,2013-07-02 06:42:00,
2013-07-02 01:57:00,75.6,70.0,29.89,North,350,0.0,-999.0,82,-99.99,,,0.00,weatherlink.com 1.10,2013-07-02 06:57:00,
2013-07-02 02:12:00,76.2,70.0,29.88,North,5,0.0,-999.0,82,-99.99,,,0.00,weatherlink.com 1.10,2013-07-02 07:12:00,
2013-07-02 02:27:00,76.3,70.0,29.88,North,5,0.0,-999.0,81,-99.99,,,0.00,weatherlink.com 1.10,2013-07-02 07:27:00,
2013-07-02 02:42:00,76.3,70.0,29.89,North,5,0.0,-999.0,81,-99.99,,,0.00,weatherlink.com 1.10,2013-07-02 07:42:00,
2013-07-02 02:57:00,76.2,70.0,29.89,North,5,0.0,-999.0,81,-99.99,,,0.00,weatherlink.com 1.10,2013-07-02 07:57:00,
2013-07-02 03:12:00,76.0,71.0,29.89,North,5,0.0,-999.0,83,-99.99,,,0.00,weatherlink.com 1.10,2013-07-02 08:12:00,
2013-07-02 03:27:00,76.0,71.0,29.89,North,9,0.0,-999.0,83,-99.99,,,0.00,weatherlink.com 1.10,2013-07-02 08:27:00,
2013-07-02 03:42:00,76.0,71.0,29.89,North,5,0.0,-999.0,83,-99.99,,,0.00,weatherlink.com 1.10,2013-07-02 08:42:00,
2013-07-02 03:57:00,76.2,70.0,29.89,North,5,0.0,-999.0,82,-99.99,,,0.00,weatherlink.com 1.10,2013-07-02 08:57:00,
2013-07-02 04:12:00,76.4,70.0,29.89,North,5,0.0,-999.0,81,-99.99,,,0.00,weatherlink.com 1.10,2013-07-02 09:12:00,
2013-07-02 04:27:00,76.4,70.0,29.90,North,5,0.0,-999.0,81,-99.99,,,0.00,weatherlink.com 1.10,2013-07-02 09:27:00,
2013-07-02 04:42:00,76.1,70.0,29.91,North,5,0.0,-999.0,81,-99.99,,,0.00,weatherlink.com 1.10,2013-07-02 09:42:00,
2013-07-02 04:57:00,75.9,70.0,29.91,North,9,0.0,-999.0,81,-99.99,,,0.00,weatherlink.com 1.10,2013-07-02 09:57:00,
2013-07-02 05:12:00,75.5,70.0,29.91,North,5,0.0,-999.0,82,-99.99,,,0.00,weatherlink.com 1.10,2013-07-02 10:12:00,
2013-07-02 05:27:00,75.1,70.0,29.91,North,9,0.0,-999.0,84,-99.99,,,0.00,weatherlink.com 1.10,2013-07-02 10:27:00,
2013-07-02 05:42:00,74.9,70.0,29.92,North,9,0.0,-999.0,84,-99.99,,,0.00,weatherlink.com 1.10,2013-07-02 10:42:00,
2013-07-02 05:57:00,74.6,70.0,29.92,North,9,0.0,-999.0,85,-99.99,,,0.00,weatherlink.com 1.10,2013-07-02 10:57:00,
2013-07-02 06:12:00,74.3,70.0,29.92,North,5,0.0,-999.0,86,-99.99,,,0.00,weatherlink.com 1.10,2013-07-02 11:12:00,
2013-07-02 06:27:00,74.2,70.0,29.93,North,5,0.0,-999.0,86,-99.99,,,0.00,weatherlink.com 1.10,2013-07-02 11:27:00,
2013-07-02 06:42:00,74.2,70.0,29.94,North,5,0.0,-999.0,87,-99.99,,,0.00,weatherlink.com 1.10,2013-07-02 11:42:00,
2013-07-02 06:57:00,74.5,71.0,29.94,North,9,0.0,-999.0,87,-99.99,,,0.00,weatherlink.com 1.10,2013-07-02 11:57:00,
2013-07-02 07:12:00,74.9,71.0,29.94,North,9,0.0,-999.0,88,-99.99,,,0.00,weatherlink.com 1.10,2013-07-02 12:12:00,
2013-07-02 07:27:00,75.6,71.0,29.94,North,5,0.0,-999.0,84,-99.99,,,0.00,weatherlink.com 1.10,2013-07-02 12:27:00,
2013-07-02 07:42:00,77.0,70.0,29.94,NNE,14,0.0,-999.0,80,-99.99,,,0.00,weatherlink.com 1.10,2013-07-02 12:42:00,
2013-07-02 07:57:00,78.3,71.0,29.94,NNE,17,0.0,-999.0,78,-99.99,,,0.00,weatherlink.com 1.10,2013-07-02 12:57:00,
2013-07-02 08:12:00,79.4,71.0,29.95,NNE,24,0.0,-999.0,75,-99.99,,,0.00,weatherlink.com 1.10,2013-07-02 13:12:00,
2013-07-02 08:27:00,80.4,71.0,29.95,NNE,26,0.0,-999.0,74,-99.99,,,0.00,weatherlink.com 1.10,2013-07-02 13:27:00,
2013-07-02 08:42:00,82.0,72.0,29.95,North,360,1.0,-999.0,71,-99.99,,,0.00,weatherlink.com 1.10,2013-07-02 13:42:00,
2013-07-02 08:57:00,83.1,72.0,29.95,NNE,24,2.0,-999.0,69,-99.99,,,0.00,weatherlink.com 1.10,2013-07-02 13:57:00,
2013-07-02 09:12:00,83.6,72.0,29.96,NE,34,1.0,-999.0,67,-99.99,,,0.00,weatherlink.com 1.10,2013-07-02 14:12:00,
2013-07-02 09:27:00,84.6,72.0,29.96,NNE,27,5.0,-999.0,66,-99.99,,,0.00,weatherlink.com 1.10,2013-07-02 14:27:00,
2013-07-02 09:42:00,86.1,72.0,29.96,NE,36,0.0,-999.0,62,-99.99,,,0.00,weatherlink.com 1.10,2013-07-02 14:42:00,
2013-07-02 09:57:00,86.4,71.0,29.96,NNE,29,1.0,-999.0,60,-99.99,,,0.00,weatherlink.com 1.10,2013-07-02 14:57:00,
2013-07-02 10:12:00,86.3,69.0,29.96,ESE,121,0.0,-999.0,57,-99.99,,,0.00,weatherlink.com 1.10,2013-07-02 15:12:00,
2013-07-02 10:27:00,86.7,70.0,29.96,SSE,148,0.0,-999.0,58,-99.99,,,0.00,weatherlink.com 1.10,2013-07-02 15:27:00,
2013-07-02 10:42:00,86.9,70.0,29.96,ENE,74,1.0,-999.0,57,-99.99,,,0.00,weatherlink.com 1.10,2013-07-02 15:42:00,
2013-07-02 10:57:00,87.3,70.0,29.96,East,81,0.0,-999.0,57,-99.99,,,0.00,weatherlink.com 1.10,2013-07-02 15:57:00,
2013-07-02 11:12:00,87.6,70.0,29.96,ENE,76,0.0,-999.0,56,-99.99,,,0.00,weatherlink.com 1.10,2013-07-02 16:12:00,
2013-07-02 11:27:00,87.4,70.0,29.96,ESE,105,0.0,-999.0,57,-99.99,,,0.00,weatherlink.com 1.10,2013-07-02 16:27:00,
2013-07-02 11:42:00,87.7,70.0,29.96,SE,146,0.0,-999.0,55,-99.99,,,0.00,weatherlink.com 1.10,2013-07-02 16:42:00,
2013-07-02 11:57:00,87.5,69.0,29.96,East,89,0.0,-999.0,55,-99.99,,,0.00,weatherlink.com 1.10,2013-07-02 16:57:00,
2013-07-02 12:12:00,88.3,71.0,29.96,ENE,60,1.0,-999.0,56,-99.99,,,0.00,weatherlink.com 1.10,2013-07-02 17:12:00,
2013-07-02 12:27:00,89.3,70.0,29.96,East,93,0.0,-999.0,54,-99.99,,,0.00,weatherlink.com 1.10,2013-07-02 17:27:00,
2013-07-02 12:42:00,89.4,71.0,29.95,East,99,0.0,-999.0,54,-99.99,,,0.00,weatherlink.com 1.10,2013-07-02 17:42:00,
2013-07-02 12:57:00,88.3,71.0,29.95,NNE,15,1.0,-999.0,57,-99.99,,,0.00,weatherlink.com 1.10,2013-07-02 17:57:00,
2013-07-02 13:12:00,87.8,72.0,29.95,NNE,14,0.0,-999.0,59,-99.99,,,0.00,weatherlink.com 1.10,2013-07-02 18:12:00,
2013-07-02 13:27:00,89.0,72.0,29.95,North,360,0.0,-999.0,57,-99.99,,,0.00,weatherlink.com 1.10,2013-07-02 18:27:00,
2013-07-02 13:42:00,90.0,71.0,29.94,North,9,3.0,-999.0,53,-99.99,,,0.00,weatherlink.com 1.10,2013-07-02 18:42:00,
2013-07-02 13:57:00,90.5,71.0,29.94,North,360,1.0,-999.0,53,-99.99,,,0.00,weatherlink.com 1.10,2013-07-02 18:57:00,
2013-07-02 14:12:00,90.3,70.0,29.94,North,5,5.0,-999.0,52,-99.99,,,0.00,weatherlink.com 1.10,2013-07-02 19:12:00,
2013-07-02 14:27:00,88.5,69.0,29.93,NNE,17,2.0,-999.0,53,-99.99,,,0.00,weatherlink.com 1.10,2013-07-02 19:27:00,
2013-07-02 14:42:00,88.1,69.0,29.93,North,355,0.0,-999.0,54,-99.99,,,0.00,weatherlink.com 1.10,2013-07-02 19:42:00,
2013-07-02 14:57:00,90.4,70.0,29.93,North,360,4.0,-999.0,51,-99.99,,,0.00,weatherlink.com 1.10,2013-07-02 19:57:00,
2013-07-02 15:12:00,91.2,69.0,29.93,NW,316,0.0,-999.0,49,-99.99,,,0.00,weatherlink.com 1.10,2013-07-02 20:12:00,
2013-07-02 15:27:00,89.8,69.0,29.92,NNE,14,5.0,-999.0,51,-99.99,,,0.00,weatherlink.com 1.10,2013-07-02 20:27:00,
2013-07-02 15:42:00,89.5,69.0,29.92,NNE,16,0.0,-999.0,51,-99.99,,,0.00,weatherlink.com 1.10,2013-07-02 20:42:00,
2013-07-02 15:57:00,87.2,72.0,29.94,South,174,1.0,-999.0,61,-99.99,,,0.00,weatherlink.com 1.10,2013-07-02 20:57:00,
2013-07-02 16:12:00,83.3,71.0,29.93,SE,140,1.0,-999.0,66,-99.99,,,0.00,weatherlink.com 1.10,2013-07-02 21:12:00,
2013-07-02 16:27:00,81.8,70.0,29.93,SSE,152,5.0,-999.0,67,-99.99,,,0.00,weatherlink.com 1.10,2013-07-02 21:27:00,
2013-07-02 16:42:00,80.6,71.0,29.93,SSE,149,5.0,-999.0,73,-99.99,,,0.00,weatherlink.com 1.10,2013-07-02 21:42:00,
2013-07-02 16:57:00,80.8,71.0,29.93,South,175,7.0,-999.0,73,-99.99,,,0.00,weatherlink.com 1.10,2013-07-02 21:57:00,
2013-07-02 17:12:00,80.6,71.0,29.93,SSE,165,0.0,-999.0,72,-99.99,,,0.00,weatherlink.com 1.10,2013-07-02 22:12:00,
2013-07-02 17:27:00,80.8,70.0,29.93,SSE,159,0.0,-999.0,70,-99.99,,,0.00,weatherlink.com 1.10,2013-07-02 22:27:00,
2013-07-02 17:42:00,81.3,71.0,29.92,SSE,152,0.0,-999.0,70,-99.99,,,0.00,weatherlink.com 1.10,2013-07-02 22:42:00,
2013-07-02 17:57:00,81.7,70.0,29.92,SSE,154,0.0,-999.0,68,-99.99,,,0.00,weatherlink.com 1.10,2013-07-02 22:57:00,
2013-07-02 18:12:00,82.1,69.0,29.93,SSE,151,0.0,-999.0,65,-99.99,,,0.00,weatherlink.com 1.10,2013-07-02 23:12:00,
2013-07-02 18:27:00,82.6,70.0,29.93,SSE,154,2.0,-999.0,66,-99.99,,,0.00,weatherlink.com 1.10,2013-07-02 23:27:00,
2013-07-02 18:42:00,82.9,70.0,29.93,SSE,152,0.0,-999.0,66,-99.99,,,0.00,weatherlink.com 1.10,2013-07-02 23:42:00,
2013-07-02 18:57:00,83.1,71.0,29.92,SSE,151,0.0,-999.0,67,-99.99,,,0.00,weatherlink.com 1.10,2013-07-02 23:57:00,
2013-07-02 19:12:00,83.3,71.0,29.93,SSE,153,0.0,-999.0,67,-99.99,,,0.00,weatherlink.com 1.10,2013-07-03 00:12:00,
2013-07-02 19:27:00,83.3,72.0,29.95,SSE,153,0.0,-999.0,68,-99.99,,,0.00,weatherlink.com 1.10,2013-07-03 00:27:00,
2013-07-02 19:42:00,83.0,72.0,29.95,SSE,153,0.0,-999.0,69,-99.99,,,0.00,weatherlink.com 1.10,2013-07-03 00:42:00,
2013-07-02 19:57:00,82.7,72.0,29.95,SSE,154,0.0,-999.0,70,-99.99,,,0.00,weatherlink.com 1.10,2013-07-03 00:57:00,
2013-07-02 20:12:00,82.4,72.0,29.96,SSE,153,0.0,-999.0,70,-99.99,,,0.00,weatherlink.com 1.10,2013-07-03 01:12:00,
2013-07-02 20:27:00,82.2,72.0,29.96,SSE,153,0.0,-999.0,71,-99.99,,,0.00,weatherlink.com 1.10,2013-07-03 01:27:00,
2013-07-02 20:42:00,81.9,72.0,29.96,SSE,155,0.0,-999.0,73,-99.99,,,0.00,weatherlink.com 1.10,2013-07-03 01:42:00,
2013-07-02 20:57:00,81.6,73.0,29.96,SSE,153,0.0,-999.0,74,-99.99,,,0.00,weatherlink.com 1.10,2013-07-03 01:57:00,
2013-07-02 21:27:00,81.0,72.0,29.96,SSE,154,0.0,-999.0,75,-99.99,,,0.00,weatherlink.com 1.10,2013-07-03 02:27:00,
2013-07-02 21:42:00,80.8,73.0,29.96,SSE,153,0.0,-999.0,76,-99.99,,,0.00,weatherlink.com 1.10,2013-07-03 02:42:00,
2013-07-02 21:57:00,80.4,72.0,29.96,SSE,153,0.0,-999.0,76,-99.99,,,0.00,weatherlink.com 1.10,2013-07-03 02:57:00,
2013-07-02 22:27:00,79.9,72.0,29.97,SSE,153,0.0,-999.0,77,-99.99,,,0.00,weatherlink.com 1.10,2013-07-03 03:27:00,
2013-07-02 22:42:00,80.0,72.0,29.98,SSE,151,0.0,-999.0,77,-99.99,,,0.00,weatherlink.com 1.10,2013-07-03 03:42:00,
2013-07-02 23:12:00,79.9,71.0,29.98,SSE,154,0.0,-999.0,75,-99.99,,,0.00,weatherlink.com 1.10,2013-07-03 04:12:00,
2013-07-02 23:27:00,79.7,71.0,29.98,SE,143,0.0,-999.0,75,-99.99,,,0.00,weatherlink.com 1.10,2013-07-03 04:27:00,
2013-07-02 23:42:00,79.3,71.0,29.98,SE,144,0.0,-999.0,75,-99.99,,,0.00,weatherlink.com 1.10,2013-07-03 04:42:00,
2013-07-02 23:57:00,78.9,71.0,29.98,SE,146,0.0,-999.0,76,-99.99,,,0.00,weatherlink.com 1.10,2013-07-03 04:57:00,